星链-30491 (STARLINK-30491 )

导读

STARLINK-30491是美国太空探索技术公司(SpaceX)于2023年9月24日发射的星链(Starlink)低轨通信卫星,隶属于Starlink v1.5平台。该卫星运行在近地轨道,近地点约538.7千米,远地点约540.8千米,轨道倾角53.219°,目前仍在轨正常工作,为全球提供宽带互联网接入服务,尤其填补偏远地区网络覆盖空白。

Basic Information
目录编号:
57916
目录名称:
STARLINK-30491
国际标识:
2023-147D
轨道中心:
EARTH
卫星名称:
星链-30491
卫星全名:
星链-30491 (STARLINK-30491 )
卫星状态:
已陨落 最后检测时间 2024-08-05
发射日期:
2023-09-24 UTC
国别 :
美国 (US)
星等 :
--
Orbit Information
数据来源 国际轨道数据
星历时间: 2024-08-05T17:55:01+0800
轨道信息已过期722天
半长轴: 6572.382km
偏心率: 0.0010531
轨道倾角: 42.983°
近地点辐角 181.603°
升交点赤经 190.188°
平近点角 178.483°
近地点: 187.325km
远地点: 201.169km
周期: 88.378分钟
每日圈数: 16.293658
Detailed Information
固有亮度:
5
最大亮度:
0.3
卫星平台:
Starlink v2.0 mini
覆盖范围:
全球
运营商:
太空探索技术公司
运营商所在国:
美国
制造商(研发单位):
太空探索技术公司
制造商所在国:
美国
使用方式:
暂无
Satellite Introduction
星链(Starlink)计划是由太空探索技术公司(SpaceX)提出的一个巨型低轨卫星互联网星座项目,计划在2019年至2024年间在太空搭建由约1.2万颗卫星组成的“星链”网络,其中1584颗将部署在地球上空550千米处的近地轨道,并从2020年开始工作。该卫星仍在工作。